This is the latest recevied weather packets stored in our database for station/object DL1NER. If no packets are shown the sender has not sent any weather packets the latest 10 day(s).
| Time | Temp. | Humidity | Pressure | Rain* | Wind** | Luminosity | Snow |
|---|---|---|---|---|---|---|---|
| 1777188609 | 10.56° C | 54% | 1023.6 hPa | 0 mm | - | 0 W/m² | - |
| 1777188010 | 10.56° C | 54% | 1023.6 hPa | 0 mm | - | 0 W/m² | - |
| 1777187409 | 10° C | 53% | 1023.7 hPa | 0 mm | - | 0 W/m² | - |
| 1777186809 | 10° C | 54% | 1023.6 hPa | 0 mm | - | 0 W/m² | - |
| 1777186209 | 9.44° C | 55% | 1023.6 hPa | 0 mm | - | 0 W/m² | - |
| 1777185610 | 9.44° C | 56% | 1023.6 hPa | 0 mm | - | 0 W/m² | - |
| 1777185010 | 8.33° C | 57% | 1023.5 hPa | 0 mm | - | 0 W/m² | - |
| 1777184411 | 7.78° C | 57% | 1023.4 hPa | 0 mm | - | 0 W/m² | - |
| 1777183809 | 7.22° C | 59% | 1023.4 hPa | 0 mm | - | 0 W/m² | - |
| 1777183209 | 5.56° C | 65% | 1023.3 hPa | 0 mm | - | 0 W/m² | - |
| 1777182609 | 5.56° C | 65% | 1023.3 hPa | 0 mm | - | 0 W/m² | - |
| 1777182009 | 4.44° C | 67% | 1023.2 hPa | 0 mm | - | 0 W/m² | - |
| 1777181410 | 3.89° C | 67% | 1023.1 hPa | 0 mm | - | 0 W/m² | - |
| 1777180810 | 3.89° C | 67% | 1022.9 hPa | 0 mm | - | 0 W/m² | - |
| 1777180209 | 3.33° C | 68% | 1022.7 hPa | 0 mm | - | 0 W/m² | - |
| 1777179609 | 2.78° C | 69% | 1022.5 hPa | 0 mm | - | 0 W/m² | - |
| 1777179009 | 2.78° C | 69% | 1022.5 hPa | 0 mm | - | 0 W/m² | - |
| 1777178410 | 2.78° C | 69% | 1022.3 hPa | 0 mm | - | 0 W/m² | - |
| 1777177810 | 2.78° C | 68% | 1022.1 hPa | 0 mm | - | 0 W/m² | - |
| 1777177209 | 2.78° C | 68% | 1021.9 hPa | 0 mm | - | 0 W/m² | - |
| 1777176609 | 2.78° C | 69% | 1021.8 hPa | 0 mm | - | 0 W/m² | - |
| 1777176010 | 2.78° C | 68% | 1021.5 hPa | 0 mm | - | 0 W/m² | - |
| 1777175410 | 2.78° C | 68% | 1021.3 hPa | 0 mm | - | 0 W/m² | - |
| 1777174810 | 2.78° C | 68% | 1021.3 hPa | 0 mm | - | 0 W/m² | - |
| 1777174209 | 2.78° C | 68% | 1021.1 hPa | 0 mm | - | 0 W/m² | - |
* Rain latest hour (hover to see other rain measurements)
** Current wind speed in m/s (hover to see current wind gust speed)